Location: ???? ????
(41.4149°N, 22.8816°E)
Time: 11:57:44
(UTC+00:00)

Cosmos 1697 Rocket - Pass Details

Date: 14 July 2020
Orbit: 834 x 842 km, 71.0° (Epoch: 09 August)

Event Time Altitude Azimuth Distance (km) Brightness Sun altitude
Rises 00:27:22 0° 338° (NNW) 3,395 6.4 -21.7°
Reaches altitude 10° 00:29:51 10° 341° (NNW) 2,456 5.7 -21.5°
Maximum altitude 00:35:28 68° 64° (ENE) 896 2.9 -21.0°
Enters shadow 00:40:50 11° 148° (SSE) 2,363 4.8 -20.5°
